Regional Weather Roundup
Issued by NWS Newport/Morehead, NC

Current Version | Previous Version | Graphics & Text | Print | Product List | Glossary Off
Versions: 1 2 3 4 5 6 7 8 9 10 11 12 13 14 15 16 17 18 19 20 21 22 23 24 25 26 27 28 29 30 31 32 33 34 35 36 37 38 39 40 41 42 43 44 45 46

000
ASUS42 KMHX 181026
RWRMHX
WEATHER ROUNDUP FOR EASTERN NORTH CAROLINA
NATIONAL WEATHER SERVICE NEWPORT/MOREHEAD CITY NC
600 AM EDT FRI AUG 18 2017

NOTE: "FAIR" INDICATES FEW OR NO CLOUDS BELOW 12,000 FEET
WITH NO SIGNIFICANT WEATHER AND/OR OBSTRUCTIONS TO VISIBILITY

NCZ015>017-031-032-045>047-102-103-181100-
NORTH COAST

CITY           SKY/WX    TMP DP  RH WIND       PRES   REMARKS
EDENTON        CLOUDY    81  78  91 CALM      29.94S
ELIZABETH CITY PTCLDY    79  79 100 S7        29.94S
KITTY HAWK     PTSUNNY   81  76  85 CALM      29.94S
MANTEO         PTCLDY    81  77  89 SW10      29.95S

$$

NCZ045>047-081-094-103-104-181100-
CENTRAL COAST

CITY           SKY/WX    TMP DP  RH WIND       PRES   REMARKS
FRISCO         PTCLDY    83  79  88 SW8       29.95S

$$

NCZ095-097-098-100-101-181100-
SOUTHERN COAST

CITY           SKY/WX    TMP DP  RH WIND       PRES   REMARKS
BEAUFORT       CLEAR     83  82  97 SW10      29.95R
CEDAR ISLAND   NOT AVBL
JACKSONVILLE   CLEAR     80  80 100 S3        29.94R
PINEY ISLAND   SUNNY    N/A N/A N/A S5        29.94S
WILMINGTON     CLEAR     80  79  96 S6        29.94S


$$

NCZ011>013-027>030-043-044-078>080-089-090>093-098-181100-
COASTAL PLAIN

CITY           SKY/WX    TMP DP  RH WIND       PRES   REMARKS
AHOSKIE          N/A     76  75  99 S3        29.93S FOG
CLINTON        MOCLDY    76  76 100 CALM      29.94R
ELIZABETHTOWN  NOT AVBL
GOLDSBORO      PTCLDY    76  76 100 S3        29.92R
GREENVILLE     NOT AVBL
HAVELOCK       CLEAR     82  79  90 SW6       29.95S
KENANSVILLE    CLOUDY    77  77 100 CALM      29.94S FOG
KINSTON        CLOUDY    79  78  97 S5        29.94S FOG
NEW BERN       CLEAR     80  80 100 S7        29.95S
RICHLANDS      CLEAR     79  78  97 S5        29.95R FOG
ROCKY MOUNT    CLOUDY    76  76 100 S7        29.93R FOG
WASHINGTON     PTCLDY    78  77  96 S5        29.94S
WHITEVILLE     NOT AVBL

$$

AMZ130-135-150-152-154-156-158-170-250-252-270-ANZ085-086-088-633-658-670-181100-
MARINE OBSERVATIONS

STATION/POSITION TIME  TEMP    WIND        PRES    WAVE   SWELL
                       AIR SEA DIR/SP/G            HT/PER HT/PER
                 (UTC) (F)     (DEG/KT/KT) (MB)    (FT/S) (FT/S)
CHESAPEAKE LIGHT NOT AVBL
64 E VA BEACH    0950   78 78  190/  8/ 10 1014.6    2/ 6   2/ 6
DUCK             1000   81 72  190/ 10/ 13 1013.4
2 E DUCK         1000      78                N/A     2/ 6
OREGON INLET     1000   82 83  180/ 12/ 15 1013.9
13E OREGON INLT  0948      80                N/A     2/ 6   2/ 8
HATTERAS CG      1000   83 83  190/  4/  8 1014.1
DIAMOND BUOY     0950   84 85  200/ 14/ 16 1014.1    2/ 3   2/ 8
CAPE LOOKOUT     1000   83     220/  7/ 10 1013.8
BEAUFORT LAB     1000   83 81  210/  7/ 10 1013.5
30 SE NEW RVR IN 1008   81 83  220/ 12/ 16 1014.1
30 SE NEW RVR IN 1013      83                N/A     2/ 3
27 SE WRIGHTSVLE 1008   84 83  210/ 12/ 16 1014.1
5 SE WRIGHTSVLE  1008   84 83  210/ 10/ 16 1013.8
225 S CAPE HAT   0950   83 84  250/ 14/ 17 1015.5    3/ 8   2/ 8
41 SE CHARLESTON 1010   84 85  230/ 12/ 16 1014.0

$$




USA.gov is the U.S. government's official web portal to all federal, state and local government web resources and services.